Omak, WA

11:27 AM PST on January 21, 2018 (GMT -0800)
Omak

Weather History for KOMK - May, 2013

Change the Weather History Date:

Tuesday, May 21, 2013

  Actual Average Record
Temperature  
Mean Temperature 56 °F 60 °F  
Max Temperature 66 °F 74 °F 90 °F (1958)
Min Temperature 46 °F 46 °F 29 °F (2010)
Degree Days  
Heating Degree Days 9 6  
Month to date heating degree days 99 185  
Since 1 July heating degree days 5912 6224  
Cooling Degree Days 0 1  
Month to date cooling degree days 23 11  
Year to date cooling degree days 23 12  
Growing Degree Days 6 (Base 50)    
Moisture  
Dew Point 46 °F    
Average Humidity 69    
Maximum Humidity 86    
Minimum Humidity 52    
Precipitation  
Precipitation 0.37 in 0.03 in 0.50 in (1972)
Month to date precipitation 0.79 0.85  
Year to date precipitation 3.31 6.38  
Sea Level Pressure  
Sea Level Pressure 29.70 in    
Wind  
Wind Speed 5 mph (West)    
Max Wind Speed 21 mph    
Max Gust Speed 29 mph    
Visibility 10 miles    
Events Rain , Thunderstorm    
T = Trace of Precipitation, MM = Missing Value Source: NWS Daily Summary

Daily Weather History Graph

Daily Weather History Graph

Search for Another Location

Airport or City:

Trip Planner

Search our weather history database for the weather conditions in past years. The results will help you decide how hot, cold, wet, or windy it might be!

Date:

Astronomy

May. 21, 2013 Rise Set
Actual Time 5:10 AM PDT 8:39 PM PDT
Civil Twilight 4:31 AM PDT 9:18 PM PDT
Nautical Twilight 3:40 AM PDT 10:10 PM PDT
Astronomical Twilight 2:30 AM PDT 11:21 PM PDT
Moon 4:43 PM PDT 3:00 AM PDT
Length of Visible Light 16h 47m
Length of Day
15h 29m
Waxing Gibbous, 85% of the Moon is Illuminated
May 21
Waxing Gibbous
May 24
Full
May 31
Last Quarter
Jun 8
New
Jun 16
First Quarter

Hourly Weather History & Observations

Time (PDT) Temp. Dew Point Humidity Pressure Visibility Wind Dir Wind Speed Gust Speed Precip Events Conditions
12:53 AM 52.0 °F 42.1 °F 69% 29.81 in 10.0 mi WNW 6.9 mph - N/A   Partly Cloudy
1:53 AM 50.0 °F 41.0 °F 71% 29.79 in 10.0 mi WNW 5.8 mph - N/A   Clear
2:53 AM 51.1 °F 41.0 °F 68% 29.76 in 10.0 mi NW 6.9 mph - N/A   Clear
3:53 AM 48.0 °F 39.9 °F 74% 29.73 in 10.0 mi WNW 4.6 mph - N/A   Clear
4:53 AM 52.0 °F 42.1 °F 69% 29.72 in 10.0 mi West 3.5 mph - N/A   Overcast
5:53 AM 52.0 °F 44.1 °F 74% 29.68 in 10.0 mi NNW 3.5 mph - N/A   Overcast
6:32 AM 51.8 °F 44.6 °F 76% 29.67 in 10.0 mi NE 4.6 mph - 0.00 in Rain , Thunderstorm Light Thunderstorms and Rain
6:53 AM 52.0 °F 46.0 °F 80% 29.65 in 10.0 mi WNW 8.1 mph - 0.00 in   Overcast
7:53 AM 54.0 °F 46.9 °F 77% 29.66 in 10.0 mi SE 3.5 mph - 0.01 in   Overcast
8:53 AM 59.0 °F 48.0 °F 67% 29.64 in 10.0 mi Calm Calm - N/A   Partly Cloudy
9:53 AM 64.0 °F 48.0 °F 56% 29.62 in 10.0 mi NNE 5.8 mph - N/A   Partly Cloudy
10:53 AM 64.9 °F 46.9 °F 52% 29.60 in 10.0 mi Calm Calm - N/A   Partly Cloudy
11:53 AM 62.1 °F 50.0 °F 65% 29.60 in 10.0 mi SSW 3.5 mph - 0.01 in Rain Light Rain
12:53 PM 57.9 °F 53.1 °F 84% 29.62 in 10.0 mi South 8.1 mph - 0.03 in Rain Light Rain
1:53 PM 57.9 °F 48.9 °F 72% 29.63 in 10.0 mi South 15.0 mph - 0.01 in Rain Light Rain
2:53 PM 54.0 °F 48.0 °F 80% 29.65 in 10.0 mi South 17.3 mph 26.5 mph 0.01 in Rain Light Rain
3:53 PM 51.1 °F 46.9 °F 86% 29.72 in 8.0 mi South 16.1 mph 25.3 mph 0.06 in Rain Light Rain
4:53 PM 50.0 °F 46.0 °F 86% 29.70 in 10.0 mi ENE 6.9 mph - 0.05 in Rain Light Rain
5:53 PM 50.0 °F 45.0 °F 83% 29.73 in 10.0 mi WSW 3.5 mph - 0.00 in   Overcast
6:53 PM 51.1 °F 46.0 °F 83% 29.74 in 10.0 mi Calm Calm - N/A   Overcast
7:53 PM 50.0 °F 46.9 °F 89% 29.73 in 10.0 mi Calm Calm - 0.00 in Rain Light Rain
8:53 PM 48.9 °F 46.9 °F 93% 29.74 in 10.0 mi NW 3.5 mph - 0.01 in   Overcast
9:29 PM 48.2 °F 46.4 °F 93% 29.74 in 10.0 mi West 3.5 mph - 0.00 in Rain Light Rain
9:53 PM 48.9 °F 46.0 °F 90% 29.75 in 8.0 mi Calm Calm - 0.02 in Rain Light Rain
10:53 PM 48.9 °F 46.9 °F 93% 29.76 in 10.0 mi South 3.5 mph - 0.00 in   Overcast
11:53 PM 48.0 °F 45.0 °F 89% 29.78 in 9.0 mi Calm Calm - 0.11 in Rain Light Rain